Location: Unspecified
(0.0000°N, 0.0000°E)
Time: 08:50:10
(UTC+00:00)

Tiros 1 despin weight - All Passes

Search period start: 27 August 2014 00:00
Search period end: 06 September 2014 00:00
Orbit: 601 x 653 km, 48.2° (Epoch: 24 August)

Date Brightness Start Highest point End Pass type
(mag) Time Alt. Az. Time Alt. Az. Time Alt. Az.
27 Aug - 02:36:09 10° SSW 02:40:22 38° SE 02:44:38 10° ENE visible
27 Aug - 04:19:09 10° W 04:22:00 16° NW 04:24:51 10° N visible
27 Aug - 14:45:40 10° NNW 14:50:15 67° NE 14:54:47 10° SE daylight
28 Aug - 02:55:14 10° SW 02:59:46 71° NW 03:04:21 10° NNE visible
28 Aug - 13:25:19 10° NNE 13:28:01 15° NE 13:30:42 10° E daylight
28 Aug - 15:05:19 10° WNW 15:09:39 40° SW 15:13:55 10° SSE daylight
29 Aug - 01:33:55 10° S 01:37:36 25° SE 01:41:20 10° ENE night (unlit)
29 Aug - 03:15:30 10° WSW 03:19:11 24° NW 03:22:54 10° N visible
29 Aug - 13:43:05 10° NNW 13:47:29 42° NE 13:51:49 10° ESE daylight
29 Aug - 15:26:33 10° W 15:29:05 15° SW 15:31:35 10° SSW daylight
30 Aug - 01:52:29 10° SSW 01:57:00 73° SE 02:01:34 10° NE night (unlit)
30 Aug - 14:02:16 10° NW 14:06:52 64° SW 14:11:25 10° SSE daylight
31 Aug - 00:32:01 10° SSE 00:34:49 16° SE 00:37:37 10° E night (unlit)
31 Aug - 02:12:13 10° WSW 02:16:23 36° NW 02:20:37 10° NNE night (unlit)
31 Aug - 12:40:42 10° N 12:44:41 28° NE 12:48:37 10° ESE daylight
31 Aug - 14:22:40 10° WNW 14:26:16 22° SW 14:29:50 10° S daylight
01 Sep - 00:49:55 10° SSW 00:54:14 45° SE 00:58:35 10° NE night (unlit)
01 Sep - 02:33:43 10° WNW 02:35:52 13° NW 02:38:01 10° NNW night (unlit)
01 Sep - 12:59:25 10° NW 13:04:05 81° NE 13:08:42 10° SE daylight
01 Sep - 23:31:31 10° SE 23:31:59 10° SE 23:32:28 10° SE night (unlit)
02 Sep - 01:09:11 10° SW 01:13:36 58° NW 01:18:05 10° NNE night (unlit)
02 Sep - 11:38:36 10° N 11:41:51 19° NE 11:45:05 10° E daylight
02 Sep - 13:19:15 10° WNW 13:23:28 34° SW 13:27:38 10° SSE daylight
02 Sep - 23:47:33 10° S 23:51:27 29° SE 23:55:22 10° ENE night (unlit)
03 Sep - 01:29:44 10° W 01:33:02 20° NW 01:36:21 10° N night (unlit)
03 Sep - 11:56:43 10° NNW 12:01:17 51° NE 12:05:47 10° SE daylight
03 Sep - 13:41:01 10° WSW 13:42:54 12° SW 13:44:47 10° SSW daylight
04 Sep - 00:06:21 10° SW 00:10:49 89° SE 00:15:21 10° NE night (unlit)
04 Sep - 10:37:06 10° NNE 10:39:00 12° NE 10:40:52 10° ENE daylight
04 Sep - 12:16:06 10° NW 12:20:40 53° SW 12:25:11 10° SSE daylight
04 Sep - 22:45:28 10° S 22:48:39 19° SE 22:51:50 10° E night (unlit)
05 Sep - 00:26:17 10° WSW 00:30:13 30° NW 00:34:11 10° N night (unlit)
05 Sep - 10:54:13 10° NNW 10:58:28 33° NE 11:02:40 10° ESE daylight
05 Sep - 12:36:46 10° W 12:40:04 19° SW 12:43:20 10° S daylight
05 Sep - 23:03:41 10° SSW 23:08:03 55° SE 23:12:27 10° NE night (unlit)
